Hourly Weather Prutz

Today, 8 July, Wednesday

Time Temperature Precipitation Wind Pressure Humidity
00:00 +8°C° 0 mm 1 mps 634 mmHg 89%
01:00 +8°C° 0 mm 1 mps 634 mmHg 88%
02:00 +8°C° 0 mm 1 mps 634 mmHg 87%
03:00 +8°C° 0 mm 1 mps 634 mmHg 86%
04:00 +8°C° 0 mm 1 mps 634 mmHg 84%
05:00 +10°C° 0 mm 1 mps 635 mmHg 75%
06:00 +12°C° 0 mm 1 mps 635 mmHg 65%
07:00 +14°C° 0 mm 1 mps 636 mmHg 55%
08:00 +16°C° 0 mm 1 mps 637 mmHg 49%
09:00 +19°C° 0 mm 1 mps 637 mmHg 43%
10:00 +21°C° 0 mm 1 mps 638 mmHg 37%
11:00 +22°C° 0 mm 1 mps 638 mmHg 36%
12:00 +23°C° 0 mm 2 mps 638 mmHg 35%
13:00 +24°C° 0 mm 2 mps 638 mmHg 35%
14:00 +23°C° 0 mm 2 mps 638 mmHg 35%
15:00 +23°C° 0 mm 2 mps 638 mmHg 36%
16:00 +22°C° 0 mm 3 mps 638 mmHg 37%
17:00 +20°C° 0 mm 2 mps 637 mmHg 47%
18:00 +19°C° 0 mm 2 mps 637 mmHg 57%
19:00 +17°C° 0 mm 2 mps 637 mmHg 67%
20:00 +15°C° 0 mm 1 mps 636 mmHg 74%
21:00 +13°C° 0 mm 1 mps 636 mmHg 82%
22:00 +11°C° 0 mm 1 mps 636 mmHg 89%
23:00 +11°C° 0 mm 1 mps 636 mmHg 89%

Tomorrow, 9 July, Thursday

Time Temperature Precipitation Wind Pressure Humidity
00:00 +10°C° 0 mm 1 mps 636 mmHg 89%
01:00 +10°C° 0 mm 1 mps 636 mmHg 89%
02:00 +10°C° 0 mm 1 mps 635 mmHg 88%
03:00 +10°C° 0 mm 1 mps 635 mmHg 87%
04:00 +9°C° 0 mm 1 mps 635 mmHg 85%
05:00 +12°C° 0 mm 1 mps 636 mmHg 76%
06:00 +14°C° 0 mm 1 mps 637 mmHg 66%
07:00 +15°C° 0 mm 0 mps 638 mmHg 57%
08:00 +19°C° 0 mm 1 mps 638 mmHg 50%
09:00 +21°C° 0 mm 1 mps 639 mmHg 44%
10:00 +22°C° 0 mm 1 mps 639 mmHg 38%
11:00 +23°C° 0 mm 1 mps 639 mmHg 38%
12:00 +24°C° 0 mm 1 mps 639 mmHg 38%
13:00 +24°C° 0 mm 1 mps 639 mmHg 38%
14:00 +24°C° 0 mm 1 mps 639 mmHg 40%
15:00 +24°C° 0 mm 1 mps 639 mmHg 43%
16:00 +24°C° 0 mm 1 mps 638 mmHg 45%
17:00 +22°C° 0.1 mm 1 mps 638 mmHg 54%
18:00 +21°C° 0.1 mm 1 mps 637 mmHg 64%
19:00 +20°C° 0.1 mm 1 mps 637 mmHg 74%
20:00 +18°C° 0.1 mm 1 mps 637 mmHg 79%
21:00 +15°C° 0.1 mm 1 mps 636 mmHg 84%
22:00 +12°C° 0.1 mm 0 mps 636 mmHg 89%
23:00 +13°C° 0 mm 1 mps 635 mmHg 89%

Day after tomorrow, 10 July, Friday

Time Temperature Precipitation Wind Pressure Humidity
00:00 +12°C° 0 mm 1 mps 635 mmHg 88%
01:00 +12°C° 0 mm 1 mps 635 mmHg 88%
02:00 +12°C° 0 mm 1 mps 635 mmHg 87%
03:00 +12°C° 0 mm 1 mps 634 mmHg 87%
04:00 +12°C° 0 mm 1 mps 634 mmHg 87%
05:00 +14°C° 0 mm 1 mps 635 mmHg 81%
06:00 +16°C° 0 mm 1 mps 635 mmHg 76%
07:00 +19°C° 0 mm 1 mps 636 mmHg 71%
08:00 +21°C° 0 mm 1 mps 636 mmHg 62%
09:00 +23°C° 0 mm 1 mps 637 mmHg 54%
10:00 +24°C° 0 mm 1 mps 637 mmHg 46%
11:00 +25°C° 0.1 mm 1 mps 637 mmHg 44%
12:00 +25°C° 0.1 mm 1 mps 637 mmHg 41%
13:00 +26°C° 0.1 mm 1 mps 637 mmHg 39%
14:00 +25°C° 0.5 mm 2 mps 636 mmHg 47%
15:00 +23°C° 0.5 mm 2 mps 636 mmHg 55%
16:00 +21°C° 0.5 mm 2 mps 635 mmHg 63%
17:00 +19°C° 2.1 mm 2 mps 635 mmHg 73%
18:00 +18°C° 2.1 mm 2 mps 635 mmHg 83%
19:00 +16°C° 2.1 mm 1 mps 634 mmHg 93%
20:00 +15°C° 1.4 mm 1 mps 634 mmHg 94%
21:00 +14°C° 1.4 mm 1 mps 634 mmHg 95%
22:00 +13°C° 1.4 mm 1 mps 634 mmHg 96%
23:00 +13°C° 0.7 mm 1 mps 634 mmHg 97%

11 July, Saturday

Time Temperature Precipitation Wind Pressure Humidity
00:00 +13°C° 0.7 mm 1 mps 634 mmHg 97%
01:00 +14°C° 0.7 mm 1 mps 634 mmHg 97%
02:00 +13°C° 1.7 mm 1 mps 634 mmHg 97%
03:00 +13°C° 1.7 mm 1 mps 634 mmHg 98%
04:00 +13°C° 1.7 mm 1 mps 634 mmHg 98%
05:00 +13°C° 0.7 mm 2 mps 634 mmHg 98%
06:00 +12°C° 0.7 mm 2 mps 634 mmHg 97%
07:00 +12°C° 0.7 mm 2 mps 634 mmHg 97%
08:00 +12°C° 1.1 mm 2 mps 635 mmHg 96%
09:00 +12°C° 1.1 mm 2 mps 635 mmHg 96%
10:00 +10°C° 1.1 mm 3 mps 635 mmHg 95%
11:00 +10°C° 0.4 mm 3 mps 635 mmHg 94%
12:00 +10°C° 0.4 mm 2 mps 635 mmHg 93%
13:00 +10°C° 0.4 mm 2 mps 636 mmHg 92%
14:00 +12°C° 0.1 mm 2 mps 636 mmHg 88%
15:00 +12°C° 0.1 mm 2 mps 636 mmHg 85%
16:00 +13°C° 0.1 mm 2 mps 636 mmHg 82%
17:00 +12°C° 0.1 mm 2 mps 637 mmHg 83%
18:00 +12°C° 0.1 mm 2 mps 637 mmHg 84%
19:00 +10°C° 0.1 mm 2 mps 637 mmHg 85%
20:00 +9°C° 0 mm 2 mps 637 mmHg 88%
21:00 +9°C° 0 mm 1 mps 637 mmHg 91%
22:00 +8°C° 0 mm 1 mps 637 mmHg 95%
23:00 +8°C° 0 mm 1 mps 637 mmHg 95%

12 July, Sunday

Time Temperature Precipitation Wind Pressure Humidity
00:00 +7°C° 0 mm 1 mps 636 mmHg 94%
01:00 +5°C° 0 mm 0 mps 636 mmHg 94%
02:00 +5°C° 0 mm 0 mps 636 mmHg 93%
03:00 +4°C° 0 mm 0 mps 636 mmHg 91%
04:00 +4°C° 0 mm 0 mps 636 mmHg 90%
05:00 +6°C° 0 mm 0 mps 636 mmHg 83%
06:00 +8°C° 0 mm 0 mps 637 mmHg 76%
07:00 +10°C° 0 mm 0 mps 638 mmHg 69%
08:00 +12°C° 0 mm 1 mps 639 mmHg 61%
09:00 +14°C° 0 mm 1 mps 639 mmHg 53%
10:00 +16°C° 0 mm 2 mps 640 mmHg 46%
11:00 +17°C° 0 mm 2 mps 640 mmHg 43%
12:00 +18°C° 0 mm 2 mps 640 mmHg 41%
13:00 +19°C° 0 mm 2 mps 640 mmHg 38%
14:00 +20°C° 0 mm 2 mps 640 mmHg 40%
15:00 +20°C° 0 mm 2 mps 640 mmHg 41%
16:00 +20°C° 0 mm 3 mps 640 mmHg 42%
17:00 +18°C° 0 mm 2 mps 640 mmHg 51%
18:00 +17°C° 0 mm 2 mps 639 mmHg 60%
19:00 +16°C° 0 mm 2 mps 639 mmHg 69%
20:00 +13°C° 0 mm 1 mps 639 mmHg 77%
21:00 +11°C° 0 mm 1 mps 638 mmHg 85%
22:00 +8°C° 0 mm 0 mps 637 mmHg 93%
23:00 +9°C° 0 mm 1 mps 637 mmHg 92%

13 July, Monday

Time Temperature Precipitation Wind Pressure Humidity
00:00 +9°C° 0 mm 1 mps 637 mmHg 92%
01:00 +9°C° 0 mm 1 mps 637 mmHg 91%
02:00 +9°C° 0 mm 1 mps 637 mmHg 91%
03:00 +9°C° 0 mm 1 mps 637 mmHg 91%
04:00 +9°C° 0 mm 1 mps 636 mmHg 91%
05:00 +11°C° 0 mm 1 mps 637 mmHg 85%
06:00 +13°C° 0 mm 1 mps 638 mmHg 79%
07:00 +15°C° 0 mm 1 mps 639 mmHg 73%
08:00 +16°C° 0 mm 1 mps 639 mmHg 64%
09:00 +19°C° 0 mm 1 mps 640 mmHg 54%
10:00 +21°C° 0 mm 1 mps 640 mmHg 45%
11:00 +22°C° 0 mm 1 mps 640 mmHg 43%
12:00 +23°C° 0 mm 2 mps 640 mmHg 41%
13:00 +23°C° 0 mm 2 mps 640 mmHg 39%
14:00 +23°C° 0.1 mm 2 mps 639 mmHg 43%
15:00 +21°C° 0.1 mm 2 mps 639 mmHg 48%
16:00 +21°C° 0.1 mm 2 mps 638 mmHg 53%
17:00 +19°C° 0.5 mm 2 mps 638 mmHg 63%
18:00 +18°C° 0.5 mm 2 mps 638 mmHg 74%
19:00 +18°C° 0.5 mm 1 mps 637 mmHg 84%
20:00 +15°C° 0.3 mm 1 mps 637 mmHg 88%
21:00 +13°C° 0.3 mm 1 mps 636 mmHg 92%
22:00 +10°C° 0.3 mm 0 mps 636 mmHg 95%
23:00 +10°C° 0 mm 0 mps 636 mmHg 95%
Show more